Wind_Gust
14 18 15 16 17 21 19 19 18 27 28 27 27 27 32 28 32 30 22 16 15 17 29 20 8 13 15 15 21 26 21 20 19 12 14 21 17 21 28 28 27 26 25 24 23 23 24 19 20 19 18 21 21 20 21 23 23 22 23 21 19 19 19 18 17 17 16 15 15 15 14 15 14 13 13 13 13 13 13 14 14 14 15 15 15 14 14 13 14 14 15 15 15 15 16 15 15
20 18 17 15 19 19 22 20 26 20 27 26 29 26 27 28 25 33 19 18 18 25 20 14 10 13 7 15 20 22 29 26 19 27 25 21 22 24 26 24 23 24 23 23 22 21 22 24 18 19 21 21 20 22 22 24 24 24 23 20 20 20 19 18 18 17 16 15 15 15 15 14 14 13 13 12 11 11 10 12 14 14 14 15 14 13 13 14 13 13 14 15 15 15 15 15 15
21 18 17 17 20 23 18 25 25 24 25 26 26 32 24 33 31 13 23 26 17 17 10 10 14 8 11 11 17 17 20 18 22 22 25 21 25 24 24 23 23 24 22 21 22 22 21 22 17 20 23 21 22 23 23 23 23 23 21 20 19 19 19 18 17 17 16 15 15 14 14 14 14 14 13 12 10 10 11 10 13 13 12 13 13 12 11 12 13 12 12 14 14 15 15 14 14
22 23 20 18 20 21 19 24 25 26 26 25 26 25 30 28 23 15 17 19 10 9 11 11 14 14 17 17 21 24 19 17 19 18 25 22 26 27 27 24 23 25 23 21 22 22 20 21 17 21 23 22 23 23 23 24 23 22 21 20 20 19 18 18 17 16 15 15 14 14 14 14 14 14 13 12 11 10 9 7 8 11 12 11 11 11 11 11 11 11 12 13 14 14 15 15 14
21 19 22 21 21 22 23 24 25 27 30 27 26 11 19 27 12 14 13 12 14 14 9 17 16 10 21 17 20 20 19 19 15 13 24 23 24 25 25 23 24 26 24 23 22 21 22 21 18 19 21 23 22 23 23 23 21 21 20 20 19 18 18 17 16 15 15 14 14 13 13 13 13 13 13 13 13 12 12 13 11 10 9 9 9 7 9 9 8 10 12 13 14 14 15 15 14
21 22 18 22 26 24 28 25 26 28 27 30 31 24 23 32 25 17 15 9 12 10 14 9 15 15 16 17 19 15 16 11 16 13 20 23 26 25 24 22 23 26 26 24 22 20 25 18 18 18 20 22 22 23 22 22 21 21 20 20 19 19 18 16 15 15 14 13 13 12 12 13 13 13 13 14 14 14 13 12 12 11 11 12 12 10 11 9 8 9 10 14 14 14 14 14 13
22 19 21 19 26 26 23 23 25 26 29 29 33 28 18 15 15 9 13 17 15 12 10 13 7 13 17 22 21 20 16 12 16 18 13 25 25 22 20 22 23 23 26 25 23 23 26 18 18 18 19 22 22 22 22 21 20 20 21 20 19 18 17 16 14 14 14 13 13 12 13 13 13 13 13 13 14 14 14 12 11 11 11 10 10 10 8 8 9 11 13 13 15 14 13 11 11
22 22 19 21 21 24 25 25 27 26 24 26 23 27 13 12 11 9 15 12 15 21 19 13 9 13 12 14 19 14 14 14 17 18 20 24 23 22 18 20 23 25 25 22 22 23 23 18 18 18 19 18 21 20 20 20 20 20 19 18 18 17 16 15 14 14 12 13 13 13 14 14 13 13 13 13 14 13 13 12 11 11 11 11 10 9 8 7 10 14 13 14 15 15 11 11 10
24 25 15 21 24 25 23 26 27 26 29 24 25 18 23 13 9 16 15 12 14 12 18 17 17 14 17 24 18 13 15 16 18 18 20 20 23 22 20 18 23 26 24 24 24 23 24 18 18 17 17 18 19 19 19 19 19 18 18 17 16 14 15 15 14 13 13 12 12 13 13 14 14 14 13 13 13 13 12 11 10 10 11 11 11 10 10 12 12 13 14 14 13 12 11 9 8
24 23 21 26 20 25 24 24 26 24 29 24 20 20 12 18 16 17 17 16 17 10 16 20 15 14 24 20 21 11 12 12 16 19 19 21 19 19 19 17 20 24 25 26 24 24 22 21 17 17 17 17 18 19 19 17 17 17 17 16 15 13 13 14 13 13 13 13 15 16 15 14 15 14 13 13 11 13 13 9 10 11 11 11 11 11 11 12 14 14 12 11 11 10 9 8 7
25 25 21 25 23 24 26 23 24 22 24 27 19 14 11 9 12 14 15 18 15 19 17 12 20 25 20 18 20 10 14 14 18 19 20 22 20 20 19 19 18 20 27 23 23 23 24 23 20 16 16 17 17 17 16 16 16 15 15 14 14 14 13 13 13 14 14 14 15 15 15 15 15 15 14 16 12 13 12 10 10 11 11 11 11 13 12 11 12 13 12 11 10 9 7 5 6
23 24 24 24 24 24 23 26 23 22 23 24 24 10 12 13 12 20 17 16 17 10 22 19 20 27 23 18 15 14 14 14 16 18 19 21 22 23 18 19 18 21 24 24 24 23 23 22 19 21 17 16 16 16 16 17 16 15 15 15 13 13 13 12 12 13 14 13 15 15 15 15 15 15 15 13 13 13 12 11 11 12 13 13 13 12 11 11 10 11 11 11 10 9 8 6 5
27 21 24 25 24 24 25 25 24 24 23 30 14 21 20 10 15 13 18 17 18 16 22 16 10 24 17 16 17 13 14 17 17 17 19 20 23 22 18 18 21 21 21 23 23 24 22 22 21 20 17 19 15 14 15 15 16 16 15 14 13 14 15 14 14 13 12 14 14 15 16 15 14 14 15 14 13 12 10 12 12 12 13 14 14 13 12 11 10 9 10 9 9 9 8 6 5
28 24 22 26 22 26 28 25 22 20 21 17 14 20 16 13 17 18 16 18 19 19 17 21 30 30 21 18 14 15 16 17 19 17 20 23 24 24 18 19 16 14 19 20 22 23 22 21 21 18 19 15 16 14 13 15 15 15 15 14 14 14 14 14 12 12 13 13 14 15 14 15 15 15 15 13 13 12 11 11 12 12 13 14 13 13 12 12 10 9 8 8 7 8 8 8 6
28 22 26 26 26 24 23 30 23 19 20 16 25 15 15 15 15 10 15 16 18 19 19 28 34 19 14 12 14 18 19 20 19 19 19 21 25 21 19 19 16 14 17 21 22 22 23 20 20 15 13 14 14 13 13 18 16 16 14 14 14 14 13 14 14 14 14 14 13 14 15 15 15 15 14 12 12 13 12 12 12 12 13 13 13 13 12 11 10 8 7 7 7 7 7 7 7
25 26 26 25 26 24 24 26 22 24 17 18 14 10 12 13 13 16 20 23 23 21 13 22 17 21 24 21 13 20 20 21 17 17 21 25 25 22 20 18 17 16 16 17 20 19 20 17 15 13 13 12 12 11 13 16 15 15 15 13 14 14 15 15 13 12 14 14 15 15 15 16 15 15 13 13 11 11 10 11 12 13 12 13 13 13 12 11 10 9 7 7 7 8 8 8 7
22 24 26 25 27 24 23 27 19 24 16 17 17 13 15 23 15 15 17 13 22 15 12 15 17 26 24 23 20 23 21 18 16 16 21 25 24 20 14 15 15 14 15 18 16 18 19 13 16 14 14 13 13 13 14 15 14 12 14 16 15 15 14 15 14 14 12 12 13 13 15 15 10 9 10 10 10 10 7 12 12 12 12 12 13 12 11 10 10 8 8 8 8 9 9 8 8
23 28 26 26 26 25 19 28 21 11 18 16 14 11 11 18 17 17 12 20 18 12 15 31 24 16 16 14 23 29 25 22 17 18 21 23 22 17 8 9 17 19 16 17 19 20 15 13 17 18 14 18 17 16 17 19 10 10 12 14 13 14 14 14 15 14 12 13 16 18 18 19 15 7 4 10 9 11 12 11 12 12 11 12 12 12 11 10 9 8 8 9 10 10 10 11 10
27 25 27 28 25 26 24 22 19 13 19 14 15 10 14 15 14 18 16 17 20 15 18 18 20 19 17 18 26 26 24 20 18 16 18 19 20 18 18 14 17 20 18 18 18 17 16 16 20 20 17 16 21 17 16 14 14 11 11 12 13 11 14 14 14 14 12 18 15 12 13 10 9 9 5 5 7 6 11 11 11 11 11 11 11 10 10 9 7 7 9 10 10 9 11 12 11
25 26 28 29 26 27 28 20 17 13 15 11 10 16 14 12 17 11 17 16 23 21 19 17 19 19 16 22 23 23 23 21 18 17 23 18 20 18 15 15 17 16 18 17 20 16 20 20 17 17 18 18 18 17 18 18 13 10 13 13 12 12 14 14 15 14 14 16 16 9 10 10 9 5 5 8 9 8 9 9 10 10 10 9 9 7 8 7 8 8 10 11 8 9 12 14 13
23 31 30 27 25 28 26 20 21 15 14 12 15 11 16 14 15 13 11 18 15 20 19 23 22 18 20 20 20 19 21 20 20 18 19 18 15 14 19 18 17 15 15 19 20 19 21 16 14 19 20 19 18 19 19 17 14 14 13 13 13 14 15 15 13 12 13 15 13 10 12 11 8 5 3 3 3 6 9 9 9 9 8 8 8 6 8 6 10 10 11 12 12 14 16 17 16
22 27 27 30 29 27 22 17 17 17 10 14 13 12 18 17 13 14 16 18 19 17 17 29 28 21 21 19 20 20 21 21 18 18 19 16 19 18 17 15 12 14 16 18 18 20 21 21 22 17 18 15 14 11 15 18 19 18 17 16 15 15 16 14 14 14 17 15 10 9 12 12 11 8 7 4 5 4 3 4 9 5 7 14 8 9 10 8 10 11 11 11 12 14 16 14 7
32 25 25 29 31 33 24 19 13 11 11 15 20 18 20 10 17 17 21 19 15 18 21 18 21 22 21 17 18 17 21 21 22 19 17 20 18 16 16 17 17 16 17 16 18 20 23 21 20 16 17 16 18 17 17 17 15 15 15 15 15 15 14 13 13 13 17 18 15 14 13 12 13 12 10 7 5 4 3 4 7 7 12 12 7 10 11 13 14 10 9 10 11 15 9 6 5
29 32 23 26 27 30 21 23 15 11 17 22 19 22 11 15 22 7 18 15 24 23 23 18 23 21 21 22 16 16 22 22 18 15 18 16 18 18 17 19 17 14 16 21 18 21 22 21 18 18 18 17 14 16 17 17 13 13 13 13 12 17 14 12 7 11 13 14 14 10 7 10 9 7 9 7 5 4 4 6 6 7 6 8 8 8 8 9 10 7 8 11 14 12 11 6 7
31 34 26 26 23 27 26 21 16 11 15 18 16 19 12 16 22 14 18 16 31 30 28 18 20 19 19 21 21 18 20 19 16 15 13 14 15 15 16 14 16 14 15 16 17 20 22 20 15 16 18 18 16 16 17 16 14 13 11 12 18 17 11 10 11 10 11 11 13 12 9 9 7 8 9 9 7 6 5 5 7 5 5 6 6 5 7 5 4 6 7 8 10 14 10 7 7
30 28 26 26 28 24 16 18 21 19 18 15 19 19 17 19 21 20 17 12 27 36 28 26 26 21 20 22 21 22 20 18 18 17 15 15 15 16 17 16 17 17 16 17 18 18 21 27 24 19 15 18 17 16 13 15 13 11 11 16 18 16 13 12 10 12 10 10 9 10 11 11 9 8 7 7 7 5 5 6 8 11 9 9 8 5 7 6 4 5 7 6 10 12 9 7 7
21 27 29 26 28 26 19 21 21 22 23 16 21 20 22 20 20 20 18 19 20 19 22 30 29 22 21 20 16 18 19 17 18 16 16 15 16 17 17 16 16 16 16 16 17 17 22 16 17 21 16 15 17 17 14 13 14 14 15 13 11 13 12 13 12 11 8 8 8 9 10 12 9 7 6 7 5 5 5 6 6 7 9 9 7 5 4 7 7 4 5 6 7 9 8 13 10
31 29 18 25 30 32 26 20 23 23 27 23 21 22 21 23 23 23 20 26 20 18 19 32 31 27 21 19 17 17 17 16 18 18 19 18 19 18 17 17 17 17 15 15 16 19 21 16 18 19 16 17 13 16 14 15 14 19 20 15 13 13 12 12 12 11 11 10 11 10 9 9 8 7 7 7 8 6 6 6 7 6 7 7 6 5 4 5 6 7 7 7 4 6 8 9 13
23 26 26 22 23 37 29 27 22 23 26 21 22 23 24 25 27 22 28 22 20 20 20 22 32 30 25 20 19 17 17 16 16 19 18 18 17 15 15 14 15 18 15 13 17 18 21 13 15 19 16 17 18 13 10 9 7 12 20 15 13 15 11 11 11 10 10 10 11 11 11 11 10 9 9 10 12 10 10 10 8 5 7 4 5 5 5 5 6 6 5 4 5 5 6 9 14
24 24 28 25 27 31 29 27 23 21 24 19 19 28 25 27 27 22 26 29 23 20 20 19 30 28 28 21 19 18 18 15 15 16 18 16 16 16 16 15 15 19 17 14 17 22 21 15 10 14 17 17 19 16 11 10 8 8 13 12 11 10 8 9 9 9 9 12 11 10 10 10 12 10 10 9 13 14 11 12 9 8 6 7 6 4 6 5 6 5 5 5 5 4 6 8 10
31 23 26 29 25 31 25 32 26 29 23 21 22 28 24 25 28 24 25 19 16 19 19 19 23 27 27 24 22 19 18 17 15 15 16 16 16 14 14 14 16 22 19 15 22 22 24 20 16 17 16 14 18 20 18 12 11 12 10 8 8 7 7 9 7 9 10 10 10 9 9 9 11 10 11 8 10 11 11 12 8 7 7 7 7 7 4 5 5 4 4 4 4 6 4 7 9
23 27 30 27 30 26 27 30 32 34 29 26 26 29 25 22 28 29 27 24 25 23 20 19 20 26 23 22 23 23 20 18 17 18 17 16 16 14 13 15 16 20 18 18 15 23 21 18 16 17 17 16 13 17 17 15 14 11 10 9 8 7 7 9 9 10 8 7 8 9 10 10 9 11 10 10 6 9 13 8 9 8 9 8 8 8 6 6 4 4 4 5 3 5 6 5 7
28 29 22 28 28 27 28 28 30 32 33 28 30 27 24 24 26 28 30 29 27 26 25 21 21 26 21 21 18 16 19 16 18 19 18 17 15 14 15 14 18 22 21 20 19 18 19 20 18 21 20 16 15 15 16 14 13 12 10 10 10 5 5 5 7 6 7 8 7 7 10 9 10 10 10 9 7 7 8 9 10 10 9 9 9 8 9 8 7 7 4 5 5 6 6 5 7
28 27 29 25 27 26 33 26 31 31 29 29 31 31 23 22 27 26 31 31 28 25 26 24 22 27 22 19 19 18 17 12 17 17 18 18 20 16 16 13 15 24 24 19 17 22 22 21 19 21 20 16 13 13 13 12 13 13 10 11 10 5 5 5 9 10 7 7 7 8 10 10 9 11 12 11 9 11 8 10 10 8 8 9 8 8 8 8 8 5 6 5 5 5 5 5 9
23 24 24 28 28 29 25 35 30 31 32 28 27 29 28 29 25 33 38 30 27 26 24 23 22 28 28 28 23 22 22 21 21 20 21 17 14 18 19 16 14 21 21 20 19 21 22 20 18 18 18 17 13 13 14 12 12 11 6 10 7 6 11 16 12 9 7 6 7 8 10 9 11 10 11 11 13 14 10 8 11 10 9 9 7 8 6 7 8 7 6 5 6 6 5 6 10
25 23 24 24 26 29 31 32 27 30 30 31 29 31 28 30 28 20 19 24 26 25 20 23 23 30 28 30 29 26 26 25 21 20 20 18 16 15 20 22 18 21 21 19 20 22 22 22 19 19 17 16 14 13 13 14 10 8 11 9 14 18 13 9 8 7 6 8 8 8 9 7 11 10 11 11 11 13 10 9 13 12 9 9 9 8 7 7 7 7 5 5 6 6 6 8 7
29 24 25 26 26 28 26 28 24 31 28 28 29 26 26 25 29 23 25 21 19 18 20 19 19 24 24 29 26 24 22 21 22 21 20 20 17 20 17 20 20 21 19 19 23 20 23 25 23 21 18 17 15 16 11 13 12 9 11 19 15 11 12 8 8 8 8 7 9 12 10 9 9 9 11 13 11 11 9 9 9 9 6 8 7 8 7 7 5 6 5 3 4 5 6 8 7
27 30 28 33 27 28 28 27 26 29 19 22 23 26 25 26 27 28 23 22 24 23 22 22 22 25 23 28 30 27 22 22 21 19 21 20 19 16 13 19 19 23 18 21 21 22 23 23 23 22 21 16 17 13 13 12 13 17 17 14 10 10 12 10 7 7 7 7 6 6 5 8 8 8 9 11 10 14 14 12 8 6 8 6 5 6 7 8 7 6 4 5 6 5 5 7 6
23 26 26 27 26 24 24 25 28 22 21 20 25 28 29 26 25 26 26 26 24 23 22 20 23 24 24 22 24 17 17 17 21 21 22 22 19 18 18 16 18 21 20 23 21 21 21 22 22 22 20 19 16 12 13 11 9 9 8 9 10 11 10 8 11 9 9 11 6 8 7 7 9 12 10 11 15 11 10 13 12 10 7 7 7 6 6 8 6 8 7 6 6 6 6 5 7
21 23 23 24 20 24 28 26 27 19 18 17 19 23 24 26 26 24 24 25 22 21 23 22 23 26 23 32 29 24 25 20 23 24 23 22 21 21 19 19 20 18 21 22 22 24 23 19 22 21 21 16 13 10 11 11 9 9 11 10 8 7 11 10 8 6 7 9 9 8 8 4 4 8 12 14 15 14 11 9 10 10 10 10 9 8 9 9 8 8 7 5 7 5 5 5 5
21 24 25 24 22 24 25 20 20 10 17 12 20 27 27 25 27 27 26 26 22 22 23 25 25 26 25 29 23 23 23 18 25 25 24 23 24 22 22 20 21 18 23 22 21 23 20 20 21 20 19 16 13 12 13 11 14 13 12 15 13 12 8 8 7 8 7 7 9 7 7 7 8 9 6 7 12 12 16 16 12 11 9 9 8 8 10 11 11 9 7 6 6 7 7 5 6
24 25 26 25 23 24 23 19 21 18 22 22 23 31 29 20 25 25 25 29 23 21 24 26 25 24 28 26 28 21 21 22 24 27 24 24 24 22 20 19 19 20 22 22 15 21 17 16 20 17 16 15 15 14 14 13 15 23 16 10 10 9 10 8 8 7 8 9 10 7 9 8 8 4 8 10 12 9 7 12 13 15 14 9 8 10 10 11 14 14 13 10 9 7 9 10 9
24 27 27 30 32 29 26 19 17 18 21 21 26 31 24 21 26 25 25 23 25 26 24 24 24 24 24 23 19 22 22 18 23 25 24 22 22 23 20 20 19 21 21 20 17 20 19 13 17 16 14 15 15 15 14 11 15 18 15 7 9 9 9 8 7 6 6 8 6 5 7 4 8 7 6 9 9 8 7 6 5 9 16 14 15 10 9 9 10 11 12 11 9 9 10 10 11
30 18 24 28 31 30 30 26 23 20 20 13 17 29 27 27 30 26 25 25 26 27 25 23 25 23 23 25 17 20 19 17 20 19 19 16 17 20 20 18 23 24 23 25 21 21 21 16 15 15 15 17 17 16 14 13 12 20 17 8 8 7 7 9 7 7 6 6 5 6 6 4 6 8 6 9 8 10 6 7 5 5 5 12 13 11 9 6 4 6 13 10 6 8 8 8 13
26 22 23 24 27 26 26 23 18 19 15 23 21 23 29 28 20 22 25 29 27 25 25 25 24 22 27 24 25 23 19 17 15 15 14 22 31 32 26 22 23 19 18 23 21 22 20 18 17 16 16 16 15 13 13 12 16 22 25 24 7 9 9 7 8 8 7 6 6 5 5 8 8 7 8 7 7 8 7 7 5 6 6 5 9 10 4 5 3 4 5 7 4 8 9 10 11
24 26 27 27 23 26 23 18 19 17 16 21 21 22 29 25 21 21 20 24 26 25 25 24 21 22 21 25 21 20 19 15 9 15 25 30 31 28 22 18 21 20 18 26 26 26 22 18 17 19 17 17 15 14 15 16 19 22 25 24 8 7 6 6 7 7 7 6 5 5 5 6 7 5 4 8 7 11 8 7 9 7 5 10 10 9 6 7 4 5 5 5 4 8 7 8 10
20 23 27 28 28 25 24 22 24 20 25 25 21 18 27 26 19 22 24 27 18 20 22 22 24 25 19 11 13 18 20 16 12 21 24 23 21 21 22 22 15 16 11 15 17 21 21 21 19 20 24 23 18 17 17 19 17 14 18 20 8 6 5 7 8 7 8 6 7 6 6 6 6 7 5 5 6 7 7 9 7 8 7 6 7 8 5 7 6 6 6 6 6 8 9 7 8
21 23 21 19 22 23 26 25 20 23 25 20 25 23 23 27 18 19 20 17 23 23 20 19 22 23 26 19 20 19 17 16 15 23 23 15 17 23 24 26 21 12 16 16 14 15 16 13 19 15 11 16 20 20 19 18 14 13 13 21 8 5 4 7 8 8 9 9 7 7 5 5 7 6 6 7 7 8 6 7 7 7 8 5 5 4 5 8 7 7 6 5 8 11 8 8 6
22 21 24 22 21 21 27 25 26 27 24 18 21 23 26 28 12 14 14 13 18 22 22 19 17 22 18 23 25 21 20 17 23 23 21 14 18 23 25 24 23 17 16 24 21 15 15 16 18 21 17 15 16 20 23 23 20 17 14 14 8 6 5 7 7 7 6 7 6 6 6 6 6 6 7 8 6 6 6 5 8 7 7 7 6 5 5 9 8 8 8 8 8 10 9 6 7
24 25 24 23 23 21 20 23 21 25 24 18 17 15 27 15 18 20 16 16 28 17 23 22 19 18 16 18 17 18 17 18 25 24 22 22 18 20 23 24 25 23 21 22 21 19 17 18 18 20 19 15 15 16 18 19 19 19 17 15 13 10 7 5 6 7 6 6 6 5 5 6 6 7 8 7 5 7 9 11 8 7 6 7 6 6 6 6 8 12 10 10 9 10 12 10 8
29 22 25 20 21 29 20 23 23 21 18 16 17 20 20 18 15 19 17 17 15 18 26 23 14 16 19 18 17 16 17 15 20 22 19 16 18 18 17 20 24 26 24 21 19 19 19 21 20 20 20 18 17 16 17 18 17 16 14 15 14 10 11 8 7 6 5 6 4 5 4 5 7 7 10 7 8 7 6 6 7 8 9 6 4 3 5 7 10 11 10 8 8 10 11 8 7
24 25 20 21 21 16 21 9 10 11 10 17 15 15 11 18 14 12 11 16 17 17 15 11 11 11 15 21 19 18 16 16 18 20 20 18 18 16 12 12 17 19 20 15 17 19 21 21 19 19 21 18 16 17 16 16 13 9 9 13 15 11 12 10 9 5 5 4 4 4 4 5 8 10 8 7 6 7 8 8 8 7 5 5 4 4 5 8 7 7 6 6 8 11 9 11 10
15 24 28 23 15 22 17 12 10 4 9 14 9 19 20 22 23 17 16 15 15 17 17 13 20 26 23 17 22 15 15 14 20 21 19 21 19 17 14 11 14 15 14 14 15 17 20 21 20 20 19 17 14 13 15 14 12 9 9 9 9 9 11 10 12 6 5 4 4 5 4 8 10 9 9 7 8 7 6 7 8 7 6 5 6 6 7 6 7 7 8 9 10 10 11 12 8
18 24 20 19 20 17 18 18 12 16 20 20 16 14 14 19 18 20 19 17 18 16 16 21 22 21 17 14 14 15 13 18 23 21 20 22 18 20 14 7 6 16 15 12 12 11 15 16 19 21 20 20 16 15 15 14 13 10 12 13 9 7 4 10 10 9 6 5 5 4 6 8 9 9 8 8 8 8 7 8 6 6 5 4 4 4 6 7 6 6 7 7 6 6 7 7 7
25 12 13 26 20 19 16 10 14 14 18 19 23 18 19 17 15 23 21 21 19 18 25 25 24 20 12 10 13 13 21 19 19 20 19 19 21 20 15 9 12 16 15 14 13 14 15 15 17 18 18 16 16 15 15 14 12 10 13 13 11 9 6 11 10 9 6 6 7 6 6 7 9 8 9 8 7 8 7 7 7 6 5 6 5 5 3 6 7 6 6 6 5 7 8 8 7
20 15 19 15 19 13 11 18 15 16 15 15 15 22 12 17 19 10 18 19 19 20 19 23 22 23 19 14 14 15 14 14 18 22 20 18 22 22 17 12 13 16 14 9 10 11 16 17 15 14 14 13 12 13 14 15 14 14 13 12 11 7 5 11 10 9 7 7 8 7 8 8 8 8 8 8 7 8 8 7 6 6 6 6 6 4 5 5 4 5 5 7 6 8 11 9 9
25 22 23 21 16 10 15 12 23 19 16 15 15 18 17 16 18 19 20 21 17 18 21 23 25 23 22 22 15 12 10 12 16 18 22 20 21 22 22 19 18 13 11 12 11 13 14 16 17 16 15 15 14 13 12 12 13 13 15 13 11 9 9 10 9 6 5 6 8 7 7 6 7 6 7 6 7 8 9 7 8 8 8 5 4 4 4 4 4 5 5 6 7 9 11 9 8
20 21 23 20 17 19 18 21 16 21 17 16 14 11 13 14 16 16 17 20 20 17 22 24 25 25 23 27 26 22 19 13 16 17 20 24 22 21 20 19 19 14 10 14 14 11 15 15 16 19 20 18 18 18 15 14 12 13 13 13 11 9 9 11 10 8 6 7 9 8 8 8 7 7 7 7 9 7 8 8 8 10 7 8 7 6 5 4 6 5 4 4 6 8 10 10 6
Wind_Speed
8 8 7 8 7 8 8 6 6 7 7 10 10 11 11 16 16 17 13 5 7 3 11 13 3 4 4 6 9 15 14 9 8 4 4 5 8 10 18 17 17 16 15 12 12 12 14 14 15 15 15 18 17 17 17 18 19 18 18 16 15 15 15 14 14 14 13 13 12 12 11 11 11 11 11 10 10 10 10 11 11 11 12 12 12 11 11 11 11 11 12 12 11 11 12 11 11
8 8 8 7 7 6 6 7 5 6 9 10 12 12 14 14 15 18 12 8 8 4 10 7 1 5 3 6 11 13 16 15 11 11 9 9 12 12 17 16 14 15 13 12 11 11 13 14 14 15 16 17 16 18 18 19 19 19 18 16 15 15 15 14 14 14 13 12 12 11 11 11 11 11 10 10 8 9 8 9 10 10 11 12 11 10 10 11 10 10 11 11 12 12 11 11 12
9 9 7 7 7 8 6 8 8 9 10 11 10 13 14 17 17 6 5 12 9 7 3 5 8 1 3 3 5 6 8 12 13 12 9 12 14 10 15 16 15 14 13 11 11 11 11 13 14 15 19 17 17 18 18 19 19 19 17 16 15 15 15 15 14 13 12 12 12 11 11 11 11 11 10 9 8 9 9 7 9 9 9 10 10 9 8 9 9 9 10 10 10 11 11 11 10
10 10 8 6 5 7 6 6 10 10 10 10 11 13 13 15 15 5 2 10 6 2 4 4 1 5 8 9 9 12 8 7 11 10 8 8 11 13 14 14 15 13 12 10 11 11 11 13 14 17 19 18 18 17 17 18 19 17 16 15 15 15 14 14 13 13 12 11 11 11 11 10 11 10 10 9 9 8 7 6 7 9 9 9 9 8 8 8 9 8 9 10 10 10 11 11 11
9 9 10 8 7 7 6 7 9 10 12 10 11 3 7 16 6 7 6 6 8 6 3 3 5 5 12 9 7 6 7 11 8 8 9 11 14 15 15 15 13 14 13 12 11 11 12 16 15 15 17 19 18 19 19 19 17 16 16 15 15 15 14 14 13 12 12 11 11 11 10 11 11 10 10 11 11 10 10 11 9 8 8 7 7 5 7 7 6 8 8 10 10 10 11 12 10
9 9 8 8 7 6 7 9 9 12 13 13 14 8 8 20 16 10 7 3 5 1 5 4 4 7 6 6 7 6 7 3 6 6 9 12 15 15 16 12 14 13 13 12 11 10 13 15 14 15 16 18 18 18 18 17 17 17 15 15 15 15 14 13 12 12 11 11 10 10 10 11 10 10 10 11 11 11 11 10 10 9 9 9 9 8 8 7 7 6 8 10 10 10 11 10 10
7 7 6 7 8 7 8 9 11 11 13 17 14 15 11 8 8 4 7 9 7 3 5 6 1 6 8 6 10 8 9 6 6 8 7 15 15 12 12 12 12 15 16 13 11 12 16 14 15 15 16 18 18 17 17 17 16 16 16 15 15 15 14 12 12 11 11 10 10 10 10 10 10 10 10 11 11 11 11 9 9 9 9 8 8 8 6 6 7 9 10 10 11 10 10 9 8
9 8 5 7 6 7 10 10 12 11 11 14 14 16 7 4 4 3 5 6 3 9 10 7 0 3 5 8 5 6 8 8 10 11 13 14 12 13 10 12 12 12 14 13 12 12 17 14 15 15 15 15 17 16 16 17 16 16 16 15 14 13 13 12 11 11 10 10 10 10 11 10 10 10 10 11 11 10 10 9 8 9 9 9 8 7 7 6 9 11 10 11 11 11 8 7 6
9 9 6 8 9 7 9 11 11 13 15 14 14 8 13 7 1 5 8 4 6 2 6 7 9 6 8 15 8 5 7 10 10 11 13 14 15 12 7 11 14 13 13 14 13 13 14 13 14 14 14 14 16 15 15 15 15 14 14 14 13 11 11 11 11 11 10 10 10 10 10 11 10 10 10 10 9 9 10 9 7 8 9 9 9 8 8 9 9 10 11 11 9 9 7 6 4
8 8 7 7 7 10 10 10 11 11 14 15 10 12 1 9 6 7 9 7 9 2 7 12 8 6 15 12 10 5 4 7 10 11 12 14 12 10 10 9 13 16 15 14 13 12 12 15 13 13 13 13 13 14 14 13 13 13 13 13 12 10 10 10 9 10 11 10 13 11 10 11 10 10 10 10 7 9 9 7 7 7 8 8 9 9 8 10 11 11 9 8 8 7 6 4 4
7 8 7 9 9 9 11 10 11 11 14 14 12 7 2 1 5 4 8 10 4 10 8 6 10 16 11 10 7 3 9 8 9 12 12 13 12 13 11 9 10 14 15 14 14 13 13 12 16 13 13 13 13 13 13 12 13 12 12 12 11 11 11 10 10 11 11 11 12 12 12 12 11 10 11 11 7 8 7 6 7 8 8 8 9 11 9 9 10 9 9 8 8 6 5 3 3
8 8 8 9 10 9 10 11 12 11 13 13 12 4 3 6 5 7 10 7 9 4 9 10 4 14 13 8 5 7 9 9 9 10 12 13 11 11 11 9 10 14 16 15 14 13 13 12 11 14 13 13 13 13 12 13 13 13 12 11 11 11 11 10 10 10 10 11 12 12 12 12 11 11 11 10 8 8 8 9 8 8 9 9 9 10 9 9 8 9 8 8 8 7 5 4 3
10 8 10 9 9 10 12 13 11 13 11 16 3 6 9 3 3 5 8 9 9 8 12 8 6 15 8 8 6 7 9 10 10 9 12 12 12 10 9 10 12 13 13 14 14 14 13 11 10 10 11 13 12 12 12 12 13 13 12 11 11 12 12 11 11 9 10 12 11 12 13 12 11 12 11 10 9 7 8 9 8 9 9 10 10 10 9 8 7 7 7 6 7 6 5 4 3
10 9 9 10 9 12 12 11 11 9 9 7 4 12 8 5 9 10 8 11 11 10 10 13 16 18 12 8 4 5 7 11 12 10 10 14 11 10 10 11 8 9 12 13 13 13 12 11 9 9 9 9 9 9 10 12 12 12 12 12 12 12 12 11 11 11 11 11 12 12 12 13 12 12 11 10 9 8 8 8 9 9 9 9 9 9 9 8 7 7 6 6 5 5 5 5 4
11 8 8 9 10 10 11 11 11 9 8 5 13 8 8 5 7 4 6 6 9 7 8 18 12 10 4 6 5 7 10 12 11 11 11 13 15 11 12 10 7 8 11 13 14 14 12 10 9 8 7 6 8 6 7 10 12 13 12 11 11 12 11 12 12 12 12 12 12 11 12 12 12 12 10 9 8 8 9 9 9 9 9 9 9 8 8 7 6 5 5 4 5 5 5 4 5
9 9 8 9 10 11 9 12 11 13 3 10 6 3 6 6 6 4 8 10 8 11 1 9 9 5 9 11 8 12 13 14 10 9 13 15 15 13 11 8 8 9 9 11 12 10 10 8 7 7 6 5 5 7 7 7 10 12 12 11 11 11 12 12 11 11 12 12 13 12 12 10 10 8 10 7 8 8 8 7 9 9 9 9 9 9 8 7 5 4 4 4 4 5 5 5 4
9 9 10 9 12 11 9 12 9 8 7 6 5 7 3 10 6 5 9 5 13 2 6 7 9 12 12 7 7 15 13 10 9 11 14 13 10 7 4 6 6 7 7 10 10 9 8 7 10 7 5 7 6 7 7 5 4 10 11 13 12 12 12 12 12 12 10 10 10 11 13 10 5 4 4 5 7 5 6 9 9 9 9 8 8 8 7 6 5 3 2 3 4 5 5 5 5
9 9 9 11 11 13 10 14 10 3 8 6 7 5 4 9 7 7 5 10 11 5 5 17 12 9 8 7 8 15 15 12 9 11 12 10 8 5 3 4 8 9 7 9 10 8 7 6 10 7 6 9 8 7 5 3 3 5 7 8 8 8 10 11 9 7 9 8 12 9 6 2 2 3 1 5 3 5 7 9 9 9 8 8 7 7 6 4 3 2 3 4 5 5 6 3 4
10 9 10 12 11 12 14 11 11 5 10 8 7 3 5 8 8 8 6 6 11 5 5 12 13 11 9 9 13 13 14 11 9 9 12 11 8 9 6 3 9 11 9 9 9 9 6 8 9 8 7 8 10 8 5 6 6 3 6 6 6 9 9 8 7 8 8 10 7 4 4 1 3 1 1 3 4 6 7 9 9 8 8 7 7 5 5 3 2 3 5 6 6 6 4 5 4
12 11 11 12 14 16 17 12 4 5 4 5 3 6 7 5 6 4 8 7 10 12 7 8 10 10 10 14 14 14 13 12 9 9 11 11 11 8 9 9 9 9 9 8 9 7 10 9 9 8 7 9 10 8 6 5 5 4 5 5 5 6 7 6 7 8 8 9 6 4 4 4 2 2 1 5 6 5 5 7 8 8 8 7 7 4 3 3 4 6 7 8 5 4 4 5 6
9 12 12 11 14 15 15 13 13 7 7 5 7 4 9 6 7 6 2 7 8 7 8 15 12 5 10 9 12 12 13 11 9 11 13 10 8 8 10 9 8 7 7 10 9 9 10 7 8 11 9 10 10 9 8 6 5 5 6 6 6 6 6 6 7 7 6 6 5 5 7 6 4 2 0 1 2 3 4 3 4 4 4 4 7 3 1 3 4 3 4 4 4 5 6 6 8
9 13 15 17 17 16 14 7 11 7 4 5 5 6 8 9 3 7 7 7 0 7 10 18 15 12 8 12 11 10 12 9 10 11 9 9 12 9 7 7 7 7 8 9 10 11 13 11 9 9 11 8 7 6 8 6 7 5 6 5 6 6 7 7 7 6 6 5 4 5 6 6 6 4 4 3 1 1 1 3 4 3 4 5 5 4 5 4 1 3 4 3 5 6 8 8 5
13 12 14 16 19 18 15 12 6 6 4 3 10 9 11 3 9 7 11 10 8 5 6 9 13 14 13 10 11 10 7 11 12 8 11 12 11 10 10 8 7 8 7 8 10 10 12 10 10 8 8 8 7 6 6 7 7 6 7 6 4 5 5 4 6 6 5 5 5 4 4 4 7 5 5 3 1 1 1 2 4 2 2 3 1 2 2 1 3 4 4 4 4 7 6 4 2
13 12 13 16 17 19 13 15 8 5 8 10 10 14 4 6 13 2 9 4 15 13 6 7 13 13 14 13 10 10 11 10 9 9 9 9 11 12 10 9 8 6 8 9 10 12 12 13 11 11 9 8 6 6 8 7 5 6 5 5 6 7 5 4 4 6 5 3 3 2 3 3 1 2 5 3 2 1 1 3 2 2 1 2 2 1 2 3 3 2 2 4 5 6 4 3 3
15 15 15 15 14 13 15 13 7 5 6 9 10 11 5 6 11 8 8 5 20 16 12 9 13 12 12 13 11 11 6 8 7 6 6 7 9 9 8 7 8 7 9 8 8 10 8 7 10 10 11 10 7 8 9 5 4 5 6 7 8 7 5 3 4 6 6 5 4 3 4 4 3 2 4 3 2 1 2 2 2 2 2 1 1 1 1 1 0 2 3 4 5 6 6 5 2
15 16 14 15 17 16 10 11 12 10 7 6 9 12 8 11 12 12 9 6 20 23 17 14 12 13 12 13 13 10 11 12 8 8 7 7 7 9 9 8 9 8 9 9 10 7 5 5 7 8 10 10 8 9 7 8 6 5 6 9 7 6 4 4 4 4 4 4 5 5 4 3 3 3 3 2 4 3 2 3 2 2 1 2 1 1 2 2 1 1 1 3 4 5 5 5 2
9 15 18 17 15 16 11 11 9 11 12 10 10 11 12 12 10 7 8 11 11 14 15 19 16 14 13 12 10 11 12 12 9 7 7 7 8 8 9 9 9 9 9 10 10 9 6 4 4 5 9 10 9 8 7 6 7 6 7 6 5 4 5 5 5 4 4 3 3 4 4 3 2 3 3 4 3 2 2 2 2 3 3 2 2 1 1 3 2 2 2 3 3 3 4 4 6
16 18 11 15 16 19 17 13 13 10 12 15 11 12 12 13 12 10 8 16 12 11 9 20 15 15 12 13 11 11 10 9 7 7 9 10 8 8 9 8 9 9 9 9 10 11 9 8 10 8 8 7 6 9 7 8 8 8 7 4 3 4 6 6 4 4 4 3 4 3 2 2 3 3 3 2 3 1 2 1 3 3 4 4 3 2 3 3 4 4 3 4 1 1 2 4 5
14 17 14 12 13 14 18 15 10 13 12 12 13 14 14 12 14 14 14 14 11 10 11 15 19 15 13 11 11 9 9 10 9 9 7 7 7 6 8 7 8 10 6 7 10 10 9 9 9 10 6 6 6 6 5 5 4 8 10 6 6 7 5 3 4 4 4 4 3 4 4 4 3 3 3 2 4 3 2 4 2 1 2 1 1 2 1 1 1 2 3 1 0 1 3 4 4
15 13 12 13 14 14 16 17 15 13 10 11 11 11 10 13 15 13 14 16 13 12 12 11 17 15 14 13 10 8 8 8 9 8 8 6 6 7 7 7 8 11 6 8 12 10 8 4 4 7 8 7 7 6 6 5 3 5 8 7 6 5 3 4 5 5 4 5 5 6 5 4 3 4 4 3 6 2 5 4 3 2 1 1 2 1 0 0 1 1 2 1 2 2 1 3 5
12 13 11 12 11 12 14 14 15 16 10 13 11 10 9 13 16 15 15 13 10 11 11 11 14 15 14 13 12 9 10 8 8 8 8 6 6 6 7 9 11 14 8 9 13 11 8 7 6 8 9 7 7 7 6 6 4 5 4 3 4 4 3 5 4 5 5 4 3 3 4 4 4 3 4 3 6 7 5 5 4 3 2 3 3 2 0 1 1 1 2 1 1 2 2 4 4
10 10 12 11 12 11 15 16 19 17 14 16 14 11 11 12 15 17 16 13 11 10 11 11 10 14 13 13 14 12 10 8 8 10 10 9 9 6 7 10 10 13 11 8 10 13 11 10 9 10 10 10 8 8 8 7 6 4 4 3 2 3 3 4 3 3 3 2 3 3 3 4 3 5 4 3 3 4 6 3 3 2 2 3 2 3 2 2 1 1 1 1 0 2 3 2 4
10 11 10 12 13 12 13 17 18 22 16 17 18 10 11 12 14 16 20 18 16 15 14 10 11 17 12 12 10 9 11 10 8 10 11 10 8 7 7 8 11 13 10 10 9 11 10 11 10 10 9 10 10 8 9 8 6 6 4 3 2 1 2 2 3 2 3 4 2 3 3 4 2 3 3 3 3 3 1 4 2 2 2 3 3 3 2 1 2 2 0 0 1 2 2 2 4
10 11 11 12 14 12 13 14 17 20 18 14 19 14 11 11 16 16 19 20 18 15 15 14 10 14 13 11 11 7 7 7 10 9 11 10 9 9 7 8 11 15 12 12 11 12 11 10 11 10 7 7 7 7 7 7 7 6 4 3 2 2 2 2 2 2 3 2 3 3 3 4 2 3 4 3 5 4 1 4 3 4 3 3 4 3 3 2 2 0 1 1 2 1 1 3 5
9 10 10 12 15 18 15 13 13 19 21 18 16 16 14 16 15 17 22 20 18 15 13 14 13 16 13 11 11 8 7 7 8 8 10 10 9 12 11 9 9 13 11 12 10 13 11 10 9 11 9 8 7 6 6 7 7 6 2 3 3 0 1 1 2 2 3 3 3 3 4 5 5 3 4 4 6 4 3 4 4 4 2 3 3 3 2 2 2 2 2 3 2 2 2 3 3
14 13 11 11 11 13 14 16 15 19 18 17 15 13 16 18 17 12 7 16 17 15 12 11 13 17 16 16 15 12 12 11 9 9 11 7 7 8 11 12 10 12 11 11 12 12 12 11 9 8 9 8 8 6 5 5 4 3 3 4 3 1 2 2 1 2 3 2 2 4 4 3 5 4 3 5 6 4 3 5 4 4 4 3 4 4 4 4 4 4 3 3 4 2 3 2 4
19 13 13 13 12 13 15 16 15 16 15 16 15 15 16 14 16 13 11 10 7 9 10 10 8 13 14 17 15 14 14 13 12 12 11 12 10 8 10 11 11 13 11 11 14 13 13 11 11 10 8 7 7 5 4 5 5 3 3 2 3 4 3 2 3 3 2 4 3 5 4 4 3 5 4 5 3 4 3 4 4 3 3 4 3 2 3 3 2 1 2 2 2 2 2 2 3
16 15 15 15 15 12 15 15 15 15 9 12 14 15 14 14 13 16 14 14 15 13 11 10 10 13 13 18 15 12 9 7 10 10 12 13 11 10 8 11 12 14 10 12 13 13 13 13 12 10 8 7 6 5 4 3 3 4 4 5 3 3 4 3 3 4 4 3 4 3 2 3 4 3 5 6 3 3 2 3 4 3 2 1 2 3 2 2 3 2 1 2 1 1 2 3 3
14 12 12 14 11 11 14 14 14 11 11 7 13 13 13 14 14 15 14 13 12 12 12 11 11 12 12 12 11 8 1 8 11 11 13 12 11 11 9 8 10 12 13 13 13 13 13 11 11 10 8 7 5 5 5 3 3 2 2 2 4 3 3 3 4 4 3 3 2 3 2 3 3 4 3 7 5 4 4 3 3 3 2 2 3 3 3 3 2 2 2 1 3 2 2 2 2
10 10 10 10 9 10 9 13 17 11 6 8 10 13 10 14 14 14 14 14 13 14 14 13 11 12 10 18 14 11 13 10 11 12 12 12 11 10 9 9 9 10 11 11 10 12 10 9 11 10 9 7 6 4 6 7 6 5 8 2 5 3 4 5 5 3 3 4 4 3 2 1 1 4 7 7 6 5 2 0 2 3 3 2 2 3 4 4 3 2 2 2 4 1 1 2 2
9 12 11 10 10 10 12 3 4 6 7 2 6 9 8 10 14 13 11 14 11 13 14 13 12 12 15 18 14 12 13 10 8 9 10 11 13 11 11 9 9 8 9 6 3 6 7 10 12 11 9 7 6 7 7 5 8 9 6 3 7 6 4 3 3 3 3 3 4 3 3 3 2 3 2 3 6 7 9 6 4 2 2 3 2 3 3 3 3 2 2 3 3 2 1 1 1
9 14 16 15 14 15 12 12 12 6 6 11 7 8 10 11 15 14 10 13 13 11 13 14 15 10 18 13 13 11 10 6 6 6 10 13 14 11 10 9 9 7 9 12 7 12 9 6 11 9 8 8 8 9 8 6 7 8 7 4 3 3 3 3 3 3 3 4 4 4 4 2 3 1 2 4 3 2 4 7 7 6 4 3 3 2 3 3 4 4 3 3 4 2 3 0 2
10 10 16 18 20 19 17 10 7 7 7 7 11 11 6 8 11 11 11 13 10 10 12 14 14 12 13 12 8 9 8 8 8 10 14 14 12 10 5 6 10 13 13 10 10 10 8 3 5 8 8 8 8 9 8 5 6 7 5 1 2 3 4 2 3 2 3 4 3 3 3 2 3 2 2 3 2 2 2 1 1 6 8 6 5 3 3 5 5 6 5 4 4 5 5 4 1
12 11 14 18 20 19 18 16 11 7 7 7 8 11 10 9 12 13 14 15 14 16 16 14 11 12 14 13 7 4 8 10 12 12 13 9 5 14 10 8 13 11 12 11 13 13 14 8 8 9 8 8 7 8 8 7 6 6 8 5 4 4 2 4 3 3 3 3 3 4 3 2 4 4 2 2 3 2 1 2 0 2 2 7 6 6 5 3 2 3 6 4 3 5 4 4 4
10 14 14 15 16 17 16 12 8 5 6 9 8 13 9 10 9 14 16 15 16 15 14 14 12 8 16 14 14 13 12 9 9 9 3 14 18 15 12 8 8 12 11 13 12 13 12 11 11 10 10 10 9 8 8 7 7 10 7 12 6 3 4 3 3 3 3 2 2 3 2 3 4 3 3 1 2 2 3 2 2 2 4 3 5 4 2 1 2 3 3 4 2 5 5 2 4
13 16 15 12 11 14 14 8 6 5 4 7 9 11 9 9 9 8 8 13 15 13 13 13 13 9 13 14 12 12 10 9 5 10 16 14 16 17 13 12 9 8 3 8 10 8 9 10 11 12 11 10 9 9 10 8 11 8 4 9 6 4 4 3 3 3 3 2 2 2 3 4 4 1 2 3 2 3 2 2 3 1 3 5 5 3 3 3 2 3 2 3 3 4 5 4 5
10 13 15 14 15 12 10 8 7 6 7 10 13 8 8 8 8 7 8 10 9 8 9 10 9 16 10 6 8 10 12 9 6 12 12 11 13 14 14 12 10 7 3 3 6 9 12 13 12 13 16 13 12 11 10 9 9 8 7 7 5 4 3 3 4 4 3 2 2 2 3 4 3 4 2 1 2 2 3 3 2 2 3 3 2 3 3 3 4 4 3 2 3 5 4 4 5
13 9 8 7 9 9 9 9 9 6 8 10 14 12 13 10 7 7 7 9 10 9 10 11 11 12 11 7 4 8 10 8 8 12 8 9 12 15 13 14 12 6 5 5 3 2 1 6 11 9 3 9 12 12 12 11 9 6 6 4 4 3 3 4 3 4 4 3 3 3 2 4 4 3 3 3 3 2 3 3 3 4 3 2 2 1 2 4 4 4 3 3 4 5 3 4 4
9 8 8 8 6 5 8 9 8 9 6 8 13 14 10 11 1 4 9 8 8 13 7 7 10 13 8 10 9 6 6 8 14 6 3 6 12 14 16 15 12 10 5 6 6 8 5 5 9 12 9 6 10 11 14 15 12 10 8 8 5 4 3 3 3 3 3 3 3 3 3 3 4 3 4 3 0 1 2 3 4 4 3 4 3 2 2 6 4 3 4 5 5 6 4 3 3
11 10 9 7 8 7 5 8 5 8 11 10 9 4 6 4 5 7 9 10 17 10 13 8 3 9 10 9 8 5 7 9 15 10 8 4 10 12 15 14 12 11 12 12 10 9 9 10 9 11 10 8 10 10 10 13 13 12 11 9 8 7 5 4 3 2 2 3 2 2 2 3 4 3 3 2 1 2 4 5 4 4 4 3 2 3 3 3 4 5 5 5 5 5 5 5 4
12 10 10 8 8 7 5 7 8 8 7 7 8 5 2 6 5 9 9 11 8 11 13 13 6 10 7 9 10 5 5 8 11 11 8 8 10 11 10 12 12 11 13 13 9 7 9 9 8 9 10 8 8 10 10 9 7 9 8 7 8 6 7 5 5 3 2 2 2 2 2 2 4 4 4 2 2 2 2 3 3 5 5 3 2 1 2 5 6 6 4 4 5 4 4 3 3
11 11 9 8 5 6 7 1 1 3 2 6 6 2 1 3 4 6 5 8 10 10 8 7 7 4 8 7 11 10 8 8 10 11 11 11 12 11 7 8 11 12 13 9 6 7 8 10 10 10 11 9 9 11 10 9 7 5 4 8 9 7 7 6 6 4 2 2 1 1 2 3 5 5 4 2 2 2 3 4 4 3 3 3 1 1 3 4 4 4 3 4 4 3 5 6 5
1 9 10 10 7 5 2 3 4 2 1 4 1 1 7 8 5 4 8 8 9 9 6 6 13 10 10 5 10 7 8 8 11 10 11 13 12 10 8 7 8 9 8 9 5 2 7 10 11 11 11 11 9 9 9 7 6 5 4 5 6 6 7 6 7 4 4 2 2 2 2 5 5 4 3 3 3 3 3 3 4 4 3 3 3 3 3 3 4 4 5 6 6 5 6 6 4
6 9 8 10 11 8 4 2 1 3 6 4 7 6 1 5 3 9 10 9 6 10 9 13 11 11 8 8 6 6 6 11 14 13 12 12 9 7 3 3 3 8 6 6 7 6 5 5 9 12 12 12 10 9 9 7 6 5 5 6 5 4 3 7 6 6 4 3 3 2 4 5 5 3 3 2 3 3 3 4 3 3 3 3 2 2 3 4 3 3 4 4 4 4 4 3 3
11 4 5 6 1 8 6 1 4 4 5 4 9 10 8 5 4 11 11 10 10 10 16 13 10 7 5 6 8 9 13 11 11 12 10 10 8 7 2 1 6 10 8 4 3 6 2 3 3 6 9 9 9 6 6 6 6 5 5 6 6 5 1 6 6 6 4 4 4 3 3 4 5 3 3 3 3 3 3 3 3 3 3 3 3 3 2 4 4 4 4 3 4 4 4 4 3
12 5 7 7 7 4 3 2 5 4 3 5 5 12 3 6 8 4 10 10 11 9 12 13 8 5 6 7 6 8 8 8 9 10 9 8 11 10 8 5 8 10 7 5 6 2 2 4 5 6 7 8 7 6 5 6 5 5 5 3 3 3 1 6 6 6 5 4 5 3 3 4 4 4 4 4 3 4 3 3 3 3 3 3 3 1 4 3 3 3 3 3 4 5 5 5 5
9 8 7 6 3 3 5 3 8 6 3 4 3 2 5 6 8 10 12 10 10 5 10 9 8 5 7 6 6 5 4 1 9 10 13 9 10 8 9 7 8 8 7 7 5 4 6 5 5 7 7 6 5 5 6 5 5 5 5 4 4 3 3 3 5 4 4 4 5 3 3 3 3 3 3 3 4 4 4 3 4 3 3 3 3 2 1 2 2 3 4 4 4 4 4 3 5
8 7 8 8 6 6 7 4 4 5 4 1 3 3 3 5 5 7 11 11 7 7 12 11 7 8 5 3 4 3 1 4 8 10 13 13 12 12 12 10 8 8 6 9 9 6 4 5 7 9 10 9 9 8 6 6 5 5 5 4 4 2 4 5 5 4 3 5 6 4 3 3 3 3 3 3 4 3 4 3 3 4 3 3 3 3 2 1 3 2 1 2 3 4 5 4 3
Wind_Direction
257 243 247 239 241 254 250 200 241 197 238 242 255 235 242 234 253 257 244 154 221 344 272 246 72 234 240 4 19 67 45 41 16 340 112 126 116 128 112 115 114 119 119 120 123 124 126 123 126 126 128 131 128 124 126 128 128 128 127 125 122 118 117 118 119 120 122 122 123 124 122 120 120 120 122 125 125 127 125 126 125 121 118 115 114 114 112 112 107 107 103 98 102 105 100 96 86
230 234 228 237 236 245 223 206 249 232 206 243 241 255 253 253 225 240 218 229 99 52 16 66 269 277 65 292 275 102 56 53 58 87 100 118 116 104 110 109 114 118 119 122 125 125 128 131 128 129 130 128 126 128 128 130 131 130 128 122 119 119 119 118 119 121 120 123 124 126 123 121 118 119 123 125 124 123 124 126 123 124 117 116 114 119 119 114 116 110 103 101 101 103 105 96 89
231 218 217 222 242 238 282 203 236 246 236 228 238 232 241 257 254 228 346 245 71 98 77 92 6 53 252 270 293 2 82 73 91 99 110 137 116 109 111 113 114 114 122 124 125 126 131 135 131 130 132 127 126 129 130 130 132 132 126 123 121 121 120 120 120 122 121 122 124 122 118 115 115 117 117 115 115 127 126 123 124 121 120 113 117 121 122 116 112 116 108 101 100 102 105 99 90
284 293 260 193 227 209 234 217 237 248 242 244 249 217 225 238 237 226 45 40 67 94 178 130 227 67 331 54 48 95 78 83 80 112 132 138 115 122 116 111 117 125 124 127 129 128 133 132 133 134 131 128 130 128 127 131 132 125 125 124 123 121 120 120 122 121 120 122 120 116 115 114 113 111 108 92 73 77 85 109 127 123 115 108 117 122 122 120 120 118 109 105 102 107 105 98 95
257 258 254 215 257 210 224 234 236 231 246 248 251 259 222 225 241 131 123 99 77 239 89 293 204 100 64 56 19 58 78 98 102 93 97 110 117 120 124 127 128 128 131 131 125 125 130 131 132 130 131 131 131 131 132 131 126 125 125 124 123 121 121 124 121 122 122 121 117 115 114 114 108 105 97 81 72 75 75 73 72 74 89 95 102 106 102 102 112 113 115 107 110 110 105 99 98
250 255 231 252 235 337 287 240 231 236 243 251 262 316 2 27 51 52 69 6 291 243 299 283 272 174 96 66 40 54 352 61 100 86 112 110 113 125 130 135 131 131 131 128 121 120 137 132 129 129 130 130 130 130 130 127 126 127 126 124 123 124 125 122 123 124 122 119 118 119 116 111 109 103 96 82 80 74 75 92 90 85 80 81 80 93 107 107 114 117 111 109 112 113 104 100 97
222 228 218 215 259 260 255 252 245 241 233 246 260 272 306 91 77 344 101 144 226 298 163 265 221 103 98 109 76 45 28 81 119 122 120 117 124 131 140 131 136 137 137 131 121 127 138 132 133 131 131 134 134 133 132 129 127 128 128 128 127 127 125 124 125 123 120 120 121 119 114 112 109 103 97 89 82 81 78 84 104 102 95 88 90 93 104 117 113 96 101 113 108 103 105 103 101
245 260 179 214 234 209 235 253 255 247 244 235 251 264 264 72 67 155 266 317 139 230 152 236 41 94 108 110 82 39 43 32 105 119 123 127 127 136 145 131 131 131 125 123 119 129 137 135 132 130 131 132 135 134 130 131 130 130 130 130 126 124 124 126 125 120 119 124 124 120 118 117 111 100 90 87 85 85 88 85 94 111 110 105 99 98 98 100 103 102 114 111 112 117 115 111 106
227 243 255 233 241 241 244 238 251 253 266 260 241 192 94 103 137 317 289 89 273 38 202 202 162 214 97 89 90 90 57 61 79 112 127 130 138 136 133 138 134 131 131 122 120 129 141 128 127 128 130 130 134 133 132 132 133 131 129 127 123 122 126 127 124 123 118 114 109 106 117 112 106 101 97 95 88 83 82 87 94 113 113 112 110 108 96 92 108 115 118 117 121 118 120 118 115
230 230 209 238 248 243 241 242 241 247 255 250 262 258 58 73 181 216 276 275 269 165 243 179 185 176 106 96 114 112 108 103 116 129 139 140 133 126 135 129 129 124 113 118 123 127 133 131 125 125 127 130 133 132 135 137 135 131 129 123 120 122 126 122 115 116 118 113 112 118 117 113 115 114 110 97 84 95 95 84 105 112 111 112 116 117 106 110 110 114 119 124 124 125 123 125 125
232 203 255 245 234 248 248 246 237 239 246 260 236 100 108 359 1 270 215 260 250 232 241 280 166 104 110 96 76 128 102 115 142 142 145 139 136 134 125 121 119 121 117 121 126 124 133 135 126 125 127 132 135 136 135 133 130 124 119 118 119 119 115 109 108 111 113 122 124 124 121 119 119 119 118 117 128 108 108 108 115 114 106 104 104 102 119 118 117 127 125 124 120 112 111 119 116
234 220 200 239 247 246 242 250 248 235 234 240 239 95 157 175 177 250 256 242 249 302 264 190 159 124 120 129 119 126 126 143 151 154 145 139 121 100 118 109 94 107 117 126 123 124 133 130 131 133 132 134 136 137 136 132 126 121 119 118 113 108 108 109 113 120 125 124 120 122 120 117 120 118 113 120 130 124 124 123 117 116 116 114 115 118 115 119 129 128 131 132 132 128 131 131 122
243 240 216 240 247 239 256 263 264 257 242 222 204 189 86 96 239 255 264 241 242 246 248 166 139 129 118 103 118 129 152 151 142 157 143 137 111 108 101 108 115 120 123 125 122 127 127 130 129 136 136 136 134 134 133 126 120 119 119 116 111 112 116 119 121 115 119 110 114 118 119 123 122 121 122 126 120 116 121 120 121 119 126 127 121 121 121 124 133 135 134 139 139 144 143 145 142
237 240 254 243 247 262 260 262 265 264 261 58 154 98 137 167 207 240 230 225 225 227 243 111 84 88 91 109 129 149 160 151 146 152 148 117 99 105 111 104 70 125 124 123 124 124 127 128 127 133 139 139 134 127 120 115 115 119 118 114 114 116 117 117 114 119 117 107 112 113 115 121 124 124 126 123 121 121 125 123 119 120 124 125 126 127 131 133 138 137 144 145 153 164 165 167 159
243 239 258 266 265 257 246 256 258 265 278 36 80 163 110 182 276 323 288 296 258 228 236 97 118 122 184 115 155 174 162 149 145 155 121 95 98 102 101 91 99 100 120 126 126 128 127 124 124 135 124 126 140 121 124 115 117 122 114 119 120 118 115 115 118 114 115 113 109 112 112 111 117 122 122 124 129 133 125 119 122 126 128 129 128 130 135 141 141 149 150 156 172 168 191 181 172
238 255 251 257 254 257 256 253 253 279 2 70 155 226 161 280 130 265 227 248 265 231 108 125 104 109 154 147 171 163 154 142 154 139 117 100 96 99 101 102 108 118 121 129 128 102 100 120 140 113 117 139 108 103 106 117 124 120 120 122 120 120 118 116 114 115 116 118 115 109 107 104 104 112 119 123 133 126 132 126 132 135 130 130 134 134 137 136 144 150 170 167 185 194 193 206 193
233 249 259 251 256 254 252 255 256 239 223 146 42 277 250 246 168 205 270 252 248 48 140 101 109 129 150 169 171 146 143 137 143 142 125 104 75 38 53 127 127 115 115 122 99 115 132 133 129 107 124 127 112 111 121 92 110 133 129 130 129 125 120 121 115 113 114 110 98 70 42 13 22 98 122 124 136 139 122 130 136 138 134 136 134 135 130 131 133 162 188 216 212 221 211 213 211
227 228 240 249 254 248 247 255 275 330 266 73 16 18 356 287 152 219 176 245 273 97 202 81 96 89 140 131 152 138 137 133 146 148 127 97 101 122 180 151 144 142 142 142 114 113 143 124 112 127 140 141 130 113 118 136 173 135 137 138 130 129 127 125 125 119 107 82 67 61 84 105 274 342 59 143 140 129 132 137 140 140 141 138 133 126 124 124 136 188 252 259 249 249 241 229 223
232 227 232 244 240 253 262 272 248 244 354 66 37 46 264 268 353 82 251 216 235 183 178 93 89 72 112 125 134 140 138 127 142 131 100 133 151 174 143 138 157 153 156 137 116 140 125 117 139 145 156 156 136 109 140 174 171 173 147 147 142 140 138 136 115 105 76 81 80 86 103 224 189 192 270 178 150 131 132 144 143 143 138 132 124 119 122 144 187 231 247 258 267 272 263 253 222
222 251 233 235 251 256 251 253 341 2 41 339 265 135 255 81 252 91 244 261 219 211 146 102 80 108 108 125 142 144 139 137 111 83 123 153 171 143 140 174 159 160 148 133 135 142 141 146 132 147 160 159 140 133 168 179 159 188 169 154 142 143 142 121 105 93 89 101 119 137 154 184 123 215 183 162 134 120 137 140 141 141 138 134 129 134 155 184 221 239 253 258 268 254 243 246 236
197 228 246 246 234 250 259 270 277 294 350 319 269 65 243 219 241 210 169 250 265 197 153 126 138 167 140 146 149 143 135 128 119 155 162 149 117 146 172 163 152 144 151 136 140 143 111 82 136 164 176 153 145 139 166 174 157 180 168 149 152 150 130 101 95 105 102 123 157 161 170 157 149 194 39 205 127 156 147 153 146 159 152 137 164 136 169 229 206 236 238 238 246 246 234 235 246
236 227 233 251 258 250 249 307 9 283 185 270 283 295 271 52 253 300 233 230 261 309 137 131 145 166 159 148 140 142 132 142 172 175 151 127 154 164 157 134 140 147 151 149 141 126 122 160 163 164 152 137 128 152 160 164 158 170 161 173 156 152 117 111 116 116 130 155 180 184 158 154 156 166 170 162 93 18 152 156 166 138 136 153 184 166 190 186 233 286 277 248 224 239 239 229 243
234 241 245 241 254 269 288 322 255 288 351 259 268 264 284 311 287 234 236 197 136 125 265 115 146 157 149 143 138 124 150 171 190 161 142 159 154 155 153 156 148 151 152 124 127 120 125 144 168 145 137 143 150 172 149 159 171 163 170 171 153 92 74 142 127 134 152 169 189 189 127 166 171 163 148 139 93 59 47 25 45 32 69 72 274 175 206 201 222 227 239 273 279 277 279 284 278
239 243 237 243 248 253 266 259 40 58 268 270 258 261 306 293 263 339 302 86 110 111 112 182 131 141 133 119 113 126 185 189 197 169 168 154 154 163 157 141 156 149 136 134 119 131 139 162 157 141 134 131 159 163 152 167 161 158 148 140 80 72 132 175 155 139 149 172 190 104 100 163 97 95 110 94 108 97 33 61 71 60 43 213 207 193 189 191 249 255 282 269 282 286 289 253 244
232 237 244 261 253 251 253 260 260 228 222 247 266 267 269 261 263 265 229 155 101 115 174 137 140 130 131 122 123 141 224 226 196 162 165 159 157 153 150 142 145 148 135 133 120 119 132 152 125 138 141 148 163 161 161 140 147 153 137 116 114 159 184 135 166 145 158 164 164 119 139 153 153 131 130 137 126 135 95 124 135 130 171 196 171 190 188 109 42 354 352 315 295 303 271 273 304
227 249 242 241 258 263 255 232 230 239 260 228 241 250 262 255 262 260 266 198 134 149 165 143 163 144 138 134 143 163 187 213 188 178 175 160 160 158 145 152 144 151 143 130 107 78 98 114 130 145 141 144 161 161 151 147 146 121 73 80 140 167 125 177 180 158 150 148 145 142 175 144 146 145 121 145 143 145 155 151 152 175 177 148 203 151 125 130 105 69 281 279 294 290 325 313 332
242 232 244 249 253 255 248 255 254 248 244 242 236 238 235 238 255 247 235 259 171 171 168 162 156 151 146 140 145 161 180 192 190 173 166 164 157 167 147 151 158 146 131 118 103 119 112 113 151 172 137 152 164 153 139 131 123 108 100 125 165 142 165 190 192 159 134 127 123 155 164 149 152 132 147 153 132 127 148 146 166 171 162 161 191 129 139 130 155 184 206 239 266 308 312 314 331
253 260 250 236 240 254 261 230 232 245 230 234 241 244 238 238 227 245 218 241 220 156 198 145 162 153 143 143 150 156 180 175 182 187 179 163 166 165 154 161 146 128 101 87 95 109 129 153 166 177 150 146 139 133 129 137 143 128 109 146 164 179 185 184 147 111 100 120 147 151 123 145 188 134 151 156 117 114 79 251 190 177 161 186 169 157 190 151 172 183 201 222 220 328 324 330 329
253 254 248 253 261 248 243 244 218 216 242 214 220 244 238 227 236 216 239 250 161 182 203 181 146 145 150 152 150 163 172 170 186 183 188 179 159 150 163 146 139 105 47 82 91 106 143 173 162 147 137 127 113 112 105 86 84 124 129 170 193 175 180 143 120 121 144 158 154 162 162 176 171 136 143 170 119 54 6 267 274 176 145 179 149 158 165 175 180 186 222 137 139 5 9 328 345
260 257 271 259 249 252 244 236 229 230 229 231 196 233 231 231 232 225 230 239 188 190 204 197 142 154 153 153 143 149 151 172 195 183 185 187 157 144 161 121 120 105 125 91 107 142 177 147 145 127 131 128 128 113 106 92 81 116 143 163 163 147 135 136 143 149 162 161 174 169 157 161 184 161 163 155 103 153 233 238 246 214 145 131 90 31 320 6 283 245 246 137 52 45 28 13 13
243 238 238 245 253 249 239 233 210 227 219 225 200 234 231 226 226 220 229 237 175 185 208 194 166 159 149 153 145 152 169 189 189 184 179 185 156 165 153 133 124 115 115 129 138 156 172 154 142 130 124 129 128 126 120 118 145 117 115 113 127 138 149 144 156 158 164 170 172 157 161 167 181 153 160 174 143 181 198 205 176 173 180 133 132 168 209 173 311 297 4 360 47 58 16 53 50
238 240 229 231 243 247 252 223 214 219 212 217 212 231 239 234 217 211 213 222 172 204 210 200 183 153 153 149 151 158 170 177 190 185 179 181 171 163 154 137 119 105 130 159 145 151 159 153 148 133 134 135 129 129 121 109 88 84 95 110 91 129 145 153 146 170 151 132 158 154 157 164 190 170 183 173 137 180 216 154 179 134 178 125 153 165 188 161 160 55 19 2 22 69 25 28 56
228 230 240 241 233 243 245 242 216 207 221 201 213 230 218 243 257 215 201 211 189 203 220 209 204 149 135 140 136 149 156 172 180 189 183 181 178 154 149 152 133 127 147 152 155 144 151 144 129 129 140 127 128 123 117 120 120 109 112 98 140 167 114 115 157 175 162 158 168 133 151 142 175 149 162 154 116 286 144 106 128 175 181 159 146 163 182 156 173 170 82 23 79 50 37 24 56
226 214 233 240 247 233 237 246 231 192 209 211 198 226 233 243 227 237 207 205 184 199 215 212 189 136 126 135 143 145 144 175 180 189 186 183 165 161 162 141 139 137 157 161 156 146 151 141 133 132 133 123 117 113 118 117 110 114 125 155 128 96 127 178 146 195 135 124 147 125 144 136 148 162 161 166 114 229 192 121 154 178 183 156 167 156 127 179 114 100 137 80 64 73 53 43 64
231 213 220 232 243 249 246 234 217 197 186 231 193 210 230 244 259 262 243 193 175 191 210 209 184 131 141 145 133 153 158 179 197 204 186 191 174 162 154 140 148 135 157 160 155 149 143 144 133 137 137 127 104 100 100 105 109 107 130 147 122 188 77 174 209 165 116 128 116 127 152 147 158 154 181 151 137 196 196 124 163 163 172 190 139 119 90 126 138 156 170 124 99 93 103 71 85
231 233 223 230 238 232 235 248 248 192 182 206 216 199 218 236 249 271 60 147 174 190 198 223 197 138 155 149 150 167 170 183 206 200 190 177 183 165 155 156 159 141 156 154 155 146 138 139 133 132 130 117 106 105 115 104 95 129 137 76 51 316 232 182 158 81 86 102 127 139 142 151 153 162 160 137 147 168 154 151 158 165 181 168 155 161 157 162 179 173 166 142 126 121 88 104 78
253 267 279 236 232 245 240 239 246 177 195 194 221 218 208 230 240 213 168 150 221 237 196 224 206 149 160 145 157 162 164 176 186 192 190 185 178 189 160 158 153 144 158 149 156 154 139 138 139 138 130 120 113 135 132 127 128 134 70 116 178 189 152 137 143 151 158 111 158 146 145 141 146 147 142 106 148 164 160 141 148 180 204 181 167 145 152 156 177 193 131 104 121 117 120 115 103
263 272 263 254 231 238 239 228 235 176 207 192 208 225 215 219 227 241 195 175 186 217 234 221 212 210 153 149 164 158 165 164 180 196 196 193 180 194 142 156 146 145 155 154 160 153 142 138 136 132 125 118 126 133 123 113 115 131 153 176 150 126 124 154 106 63 61 59 42 53 80 105 123 125 130 145 148 170 162 146 164 190 197 172 145 156 161 165 172 167 182 123 136 90 83 97 117
260 266 276 285 235 229 247 242 228 199 172 239 191 216 229 221 219 227 244 181 187 199 217 224 220 217 167 126 106 85 137 185 189 198 199 192 186 182 148 158 158 149 152 162 154 147 140 133 125 124 120 124 131 119 120 79 42 19 139 128 131 126 157 129 111 113 126 120 92 89 97 132 141 123 139 136 149 174 161 166 169 183 189 175 164 151 159 166 191 186 152 119 104 108 111 115 136
251 251 260 267 263 225 217 235 229 196 167 206 225 205 211 242 229 220 234 233 179 186 202 222 225 233 140 129 143 162 180 194 190 193 192 187 193 179 171 171 157 141 150 155 142 137 126 130 120 124 125 122 116 89 60 44 25 26 354 343 88 96 83 81 97 116 110 139 153 139 88 8 118 147 157 143 134 132 71 170 201 180 190 209 173 161 167 153 169 189 159 136 98 101 220 123 124
234 259 249 260 265 245 241 127 167 97 118 305 281 275 256 219 236 220 206 241 187 178 197 213 220 224 115 132 154 167 176 183 191 187 189 194 193 185 180 164 146 138 143 102 142 111 114 135 121 121 122 120 102 80 69 58 56 38 269 63 78 81 81 94 124 135 149 120 113 127 128 164 120 70 349 117 138 153 161 175 177 160 220 193 195 165 172 164 176 174 170 125 136 140 167 98 104
237 234 247 258 267 274 245 146 182 186 190 173 208 254 247 234 228 224 188 237 207 171 200 211 222 183 124 136 149 161 166 170 182 242 216 198 199 180 176 153 140 104 57 50 39 52 52 63 110 107 113 108 98 85 82 81 89 109 275 77 99 110 131 177 148 117 135 182 138 124 151 110 68 34 90 52 71 125 160 160 167 163 173 195 202 183 174 171 192 170 172 141 152 166 83 292 138
246 225 225 246 260 266 274 243 198 204 233 193 181 236 235 235 248 228 219 232 188 190 212 218 217 176 133 117 112 148 165 141 153 219 233 215 196 179 101 54 74 56 70 89 48 88 94 57 68 101 104 100 99 92 89 84 110 112 267 156 174 174 163 156 130 156 109 96 118 100 78 102 109 64 80 102 85 65 47 77 197 168 167 182 188 192 185 203 193 169 157 174 163 130 152 163 220
238 248 211 220 241 254 264 270 204 222 191 241 220 212 247 224 218 227 226 221 208 204 212 214 208 209 105 102 88 312 202 181 193 206 209 193 74 40 62 67 85 94 101 115 123 128 123 147 120 104 104 106 98 106 106 120 106 66 342 296 192 186 132 119 132 90 91 96 100 122 134 165 139 146 136 136 148 117 172 146 158 12 211 172 166 171 169 204 194 135 140 153 150 141 151 108 167
238 243 237 209 231 239 252 268 233 224 226 236 209 214 227 243 248 210 213 217 219 218 205 203 211 173 122 131 152 192 206 203 203 202 91 66 77 77 74 88 101 121 131 134 146 151 148 135 127 124 122 112 111 113 122 104 83 65 29 305 280 99 117 129 121 121 115 116 124 186 154 100 63 35 108 132 72 124 123 99 23 30 347 8 102 82 43 64 48 96 124 130 132 95 88 139 148
232 257 268 273 228 234 244 249 263 234 213 236 228 210 237 228 236 227 206 228 214 212 203 199 208 166 127 138 165 186 183 187 168 68 79 96 95 99 94 86 63 31 93 131 145 143 134 131 131 132 124 125 131 137 130 133 102 103 125 285 257 134 157 154 128 112 105 173 156 79 87 112 117 147 20 33 72 74 19 91 88 41 30 51 62 71 106 83 51 46 66 93 101 108 124 153 134
240 231 246 263 225 207 227 248 221 230 233 228 243 218 250 259 243 220 202 214 207 194 210 196 164 99 121 125 153 185 174 163 154 86 87 95 106 105 105 92 75 39 7 182 158 166 158 149 146 144 146 144 143 141 139 131 121 143 164 216 246 153 160 130 117 135 148 146 140 165 168 148 135 104 102 66 105 111 89 49 108 94 49 21 61 104 83 92 98 96 49 85 102 106 100 106 99
221 233 240 262 255 203 220 219 226 229 236 236 233 219 189 243 248 248 203 166 201 215 222 188 163 121 126 147 137 155 171 173 104 72 86 105 105 112 104 100 98 74 351 286 210 148 127 126 136 133 111 139 146 143 141 132 134 150 171 196 251 135 126 129 151 148 167 163 169 183 126 113 110 135 125 115 49 53 100 114 45 56 50 56 53 10 126 119 104 102 133 95 92 106 111 95 91
218 212 229 239 228 212 209 209 212 219 240 217 231 224 202 236 309 91 37 18 278 214 194 123 126 116 138 147 147 122 162 140 95 114 148 155 118 118 115 119 127 134 164 246 192 149 158 153 150 138 148 146 143 153 150 144 152 166 177 192 185 135 145 143 155 161 177 150 183 149 161 121 129 147 129 89 20 134 146 133 120 108 77 21 19 67 77 77 68 75 83 90 80 87 96 90 103
233 221 211 222 230 209 245 214 227 244 226 234 233 305 269 159 111 87 101 72 26 44 120 156 227 128 143 144 136 172 162 149 126 153 172 148 109 117 122 129 139 153 167 200 209 173 162 163 162 148 154 162 149 155 151 148 160 167 183 177 151 155 138 147 161 169 172 159 165 144 169 137 125 117 107 111 199 101 72 66 73 88 112 101 67 21 26 91 115 96 74 77 85 102 102 112 125
220 238 233 214 229 213 224 223 221 233 246 223 195 188 171 152 114 103 95 94 86 50 56 56 69 139 145 140 132 179 212 149 126 137 143 109 106 111 111 136 151 167 177 188 196 164 154 156 159 148 147 156 145 145 147 152 171 177 182 155 143 151 145 155 163 158 183 133 126 196 99 108 113 99 88 79 56 115 132 128 113 86 62 67 47 30 74 64 58 68 70 78 86 101 117 119 112
201 223 230 230 227 194 247 241 266 338 273 247 215 193 205 124 95 89 129 121 98 91 87 110 109 113 144 168 154 178 180 152 129 113 103 98 102 104 109 139 154 166 165 160 169 166 159 157 156 152 148 141 152 155 156 165 168 166 194 144 158 159 151 156 138 152 137 128 154 116 89 92 95 91 107 139 141 86 84 88 87 109 115 109 141 130 78 79 93 99 112 114 111 121 116 105 99
250 213 212 220 228 188 231 167 216 124 272 259 87 64 99 140 145 193 144 150 124 119 122 113 66 53 55 130 162 157 137 124 96 102 101 108 114 135 160 167 165 149 141 133 131 264 176 159 155 149 146 148 149 154 151 154 155 150 135 122 136 144 156 149 141 145 130 127 103 92 102 96 98 107 117 127 132 136 108 90 86 85 90 71 60 67 92 93 93 91 75 71 67 64 79 88 91
214 224 219 221 218 210 175 243 191 206 238 215 164 162 313 200 175 154 140 137 159 138 135 81 71 61 61 64 104 111 119 97 99 100 110 122 128 137 82 42 87 126 104 92 107 206 203 180 157 145 147 143 146 146 147 148 140 131 128 122 123 128 141 132 123 126 126 128 120 110 100 108 115 127 132 123 96 94 100 109 113 94 97 139 125 114 96 100 102 95 92 103 121 116 97 87 87
227 238 40 291 183 219 181 243 236 229 223 229 213 192 166 235 191 172 157 163 120 108 84 81 76 92 82 70 77 78 76 88 97 102 121 131 107 112 129 217 23 81 68 65 47 299 129 127 127 124 124 129 132 138 140 131 128 126 135 144 146 136 129 122 125 131 146 138 134 128 138 120 118 142 141 125 125 120 118 106 116 121 103 85 83 82 110 91 88 94 126 134 125 109 105 102 94
242 251 192 225 254 290 256 206 254 199 240 247 212 213 92 36 9 247 158 128 111 120 109 102 104 88 62 60 63 69 83 96 109 120 115 117 140 156 182 170 107 103 116 117 88 22 77 116 122 116 110 117 128 133 137 136 136 129 143 131 111 106 135 132 141 137 132 139 129 138 136 125 147 148 139 167 154 135 124 143 120 124 134 126 134 124 91 125 130 151 129 105 118 131 128 133 140
206 225 248 232 204 170 239 186 241 239 239 235 252 208 83 28 353 58 88 93 93 98 94 86 93 57 49 38 39 25 25 34 116 118 115 125 131 140 141 123 110 101 101 74 100 239 168 116 116 118 127 131 145 148 152 144 138 129 136 129 131 121 128 124 119 125 131 129 129 126 129 138 157 154 156 175 155 151 151 136 137 143 132 126 113 121 138 130 156 102 113 154 165 138 134 118 122
241 223 227 234 221 192 214 227 329 241 251 290 321 48 63 56 360 71 71 72 77 147 124 130 156 104 101 70 339 337 39 68 95 100 104 98 99 104 98 87 83 82 87 140 164 187 89 131 155 151 150 158 158 165 159 149 136 137 138 146 137 162 156 151 133 147 139 127 126 141 148 159 180 142 182 181 154 163 143 155 153 132 121 134 136 130 164 125 83 97 129 155 134 113 112 139 126